GAP2203 RPLL-RPVR

Flight info

Callsign GAP2203
Flight time 0h 38m
Altitude 27000
Route IPATA4V IPATA DCT SAGAM TR16 SIBUN DCT
Aircraft A320/M-SDE3FGHIRWY/LB1

Departure

Time 2026-04-20 04:33
Airport Ninoy Aquino International Airport (RPLL)

Arrival

Time 2026-04-20 05:11
Airport Roxas Airport (RPVR)
Time Latitude Longitude Altitude Speed Heading
2026-04-20 04:09 14.50830 121.01273 55 ft 0 kts 330°
2026-04-20 04:23 14.50829 121.01273 55 ft 1 kts 330°
2026-04-20 04:23 14.50817 121.01280 55 ft 2 kts 329°
2026-04-20 04:23 14.50804 121.01288 54 ft 2 kts 330°
2026-04-20 04:24 14.50790 121.01296 53 ft 2 kts 329°
2026-04-20 04:24 14.50777 121.01304 52 ft 2 kts 329°
2026-04-20 04:24 14.50763 121.01309 52 ft 2 kts
2026-04-20 04:24 14.50749 121.01305 51 ft 2 kts 32°
2026-04-20 04:25 14.50740 121.01296 51 ft 0 kts 57°
2026-04-20 04:25 14.50736 121.01290 51 ft 1 kts 61°
2026-04-20 04:25 14.50736 121.01289 51 ft 0 kts 61°
2026-04-20 04:27 14.50747 121.01310 51 ft 7 kts 60°
2026-04-20 04:27 14.50785 121.01379 54 ft 13 kts 60°
2026-04-20 04:27 14.50826 121.01453 58 ft 10 kts 60°
2026-04-20 04:28 14.50864 121.01521 60 ft 12 kts 60°
2026-04-20 04:28 14.50913 121.01608 59 ft 16 kts 60°
2026-04-20 04:28 14.50964 121.01701 55 ft 14 kts 60°
2026-04-20 04:28 14.51032 121.01766 51 ft 14 kts 354°
2026-04-20 04:29 14.51118 121.01694 53 ft 17 kts 315°
2026-04-20 04:29 14.51209 121.01601 57 ft 19 kts 314°
2026-04-20 04:29 14.51305 121.01499 60 ft 21 kts 316°
2026-04-20 04:29 14.51423 121.01378 58 ft 27 kts 315°
2026-04-20 04:30 14.51570 121.01224 51 ft 30 kts 315°
2026-04-20 04:30 14.51721 121.01069 46 ft 31 kts 315°
2026-04-20 04:30 14.51878 121.00907 41 ft 31 kts 315°
2026-04-20 04:30 14.52029 121.00751 37 ft 26 kts 314°
2026-04-20 04:31 14.52161 121.00612 35 ft 26 kts 316°
2026-04-20 04:31 14.52266 121.00492 33 ft 12 kts 302°
2026-04-20 04:31 14.52279 121.00498 33 ft 5 kts 126°
2026-04-20 04:31 14.52255 121.00518 33 ft 0 kts 135°
2026-04-20 04:32 14.52253 121.00520 33 ft 5 kts 135°
2026-04-20 04:32 14.52040 121.00742 37 ft 80 kts 134°
2026-04-20 04:32 14.51495 121.01304 55 ft 140 kts 134°
2026-04-20 04:32 14.50716 121.02100 350 ft 163 kts 134°
2026-04-20 04:33 14.49894 121.02913 949 ft 165 kts 133°
2026-04-20 04:33 14.49105 121.03741 1614 ft 164 kts 133°
2026-04-20 04:33 14.48299 121.04597 2104 ft 173 kts 133°
2026-04-20 04:33 14.47403 121.05535 2498 ft 190 kts 133°
2026-04-20 04:34 14.46435 121.06542 2893 ft 206 kts 133°
2026-04-20 04:34 14.45360 121.07660 3200 ft 231 kts 133°
2026-04-20 04:34 14.44197 121.08874 3660 ft 248 kts 130°
2026-04-20 04:34 14.43227 121.10395 4134 ft 264 kts 111°
2026-04-20 04:35 14.42740 121.12251 4861 ft 269 kts 100°
2026-04-20 04:35 14.42406 121.14137 5672 ft 272 kts 99°
2026-04-20 04:35 14.42075 121.16058 6483 ft 275 kts 99°
2026-04-20 04:35 14.41736 121.17990 7314 ft 278 kts 99°
2026-04-20 04:36 14.41011 121.21924 8936 ft 285 kts 104°
2026-04-20 04:36 14.40279 121.23825 9696 ft 290 kts 118°
2026-04-20 04:36 14.39128 121.25551 10448 ft 296 kts 126°
2026-04-20 04:37 14.37802 121.27274 10889 ft 312 kts 127°
2026-04-20 04:37 14.36414 121.29053 11249 ft 330 kts 127°
2026-04-20 04:37 14.34943 121.30942 11608 ft 344 kts 127°
2026-04-20 04:37 14.33421 121.32900 12245 ft 349 kts 127°
2026-04-20 04:38 14.31908 121.34854 12943 ft 352 kts 127°
2026-04-20 04:38 14.30390 121.36821 13565 ft 355 kts 127°
2026-04-20 04:38 14.28847 121.38823 14141 ft 359 kts 127°
2026-04-20 04:38 14.27281 121.40855 14718 ft 363 kts 127°
2026-04-20 04:39 14.25719 121.42883 15238 ft 367 kts 127°
2026-04-20 04:39 14.24107 121.44973 15787 ft 370 kts 127°
2026-04-20 04:39 14.22514 121.47040 16305 ft 373 kts 127°
2026-04-20 04:39 14.20890 121.49147 16780 ft 376 kts 127°
2026-04-20 04:40 14.19236 121.51294 17261 ft 379 kts 128°
2026-04-20 04:40 14.17596 121.53419 17728 ft 382 kts 128°
2026-04-20 04:40 14.15919 121.55591 18197 ft 385 kts 128°
2026-04-20 04:40 14.14250 121.57753 18654 ft 387 kts 128°
2026-04-20 04:41 14.12553 121.59949 19106 ft 389 kts 128°
2026-04-20 04:41 14.10832 121.62095 19525 ft 392 kts 131°
2026-04-20 04:41 14.08898 121.64116 19950 ft 395 kts 136°
2026-04-20 04:41 14.06786 121.65940 20385 ft 397 kts 142°
2026-04-20 04:42 14.04584 121.67641 20827 ft 398 kts 143°
2026-04-20 04:42 14.02315 121.69363 21236 ft 401 kts 143°
2026-04-20 04:42 14.00631 121.70638 21534 ft 402 kts 143°
2026-04-20 04:42 13.98368 121.72356 21924 ft 404 kts 143°
2026-04-20 04:43 13.96112 121.74075 22303 ft 406 kts 143°
2026-04-20 04:43 13.93805 121.75833 22696 ft 408 kts 143°
2026-04-20 04:43 13.91526 121.77570 23066 ft 410 kts 143°
2026-04-20 04:43 13.89183 121.79340 23428 ft 413 kts 145°
2026-04-20 04:44 13.86785 121.80967 23781 ft 415 kts 148°
2026-04-20 04:44 13.84256 121.82452 24210 ft 415 kts 152°
2026-04-20 04:44 13.81648 121.83786 24699 ft 414 kts 154°
2026-04-20 04:44 13.79049 121.85072 25178 ft 413 kts 155°
2026-04-20 04:45 13.76473 121.86342 25596 ft 413 kts 155°
2026-04-20 04:45 13.73853 121.87631 25949 ft 415 kts 155°
2026-04-20 04:45 13.71221 121.88929 26302 ft 417 kts 155°
2026-04-20 04:45 13.68620 121.90211 26645 ft 419 kts 155°
2026-04-20 04:46 13.65961 121.91524 26897 ft 421 kts 155°
2026-04-20 04:46 13.63317 121.92829 26915 ft 422 kts 155°
2026-04-20 04:46 13.60646 121.94147 26915 ft 422 kts 155°
2026-04-20 04:46 13.58009 121.95448 26917 ft 422 kts 155°
2026-04-20 04:47 13.55335 121.96767 26917 ft 422 kts 155°
2026-04-20 04:47 13.52675 121.98080 26914 ft 422 kts 155°
2026-04-20 04:47 13.50053 121.99373 26914 ft 421 kts 155°
2026-04-20 04:47 13.47391 122.00686 26915 ft 421 kts 155°
2026-04-20 04:48 13.44743 122.01992 26920 ft 421 kts 155°
2026-04-20 04:48 13.42094 122.03297 26927 ft 421 kts 155°
2026-04-20 04:48 13.39428 122.04611 26931 ft 421 kts 155°
2026-04-20 04:48 13.36769 122.05920 26935 ft 422 kts 155°
2026-04-20 04:49 13.34146 122.07213 26939 ft 422 kts 155°
2026-04-20 04:49 13.31483 122.08524 26940 ft 422 kts 155°
2026-04-20 04:49 13.28819 122.09836 26940 ft 422 kts 155°
2026-04-20 04:49 13.26199 122.11126 26942 ft 422 kts 155°
2026-04-20 04:50 13.23511 122.12449 26943 ft 422 kts 155°
2026-04-20 04:50 13.20880 122.13744 26938 ft 422 kts 155°
2026-04-20 04:50 13.18220 122.15053 26932 ft 421 kts 155°
2026-04-20 04:50 13.15591 122.16345 26923 ft 421 kts 155°
2026-04-20 04:51 13.12940 122.17648 26918 ft 421 kts 155°
2026-04-20 04:51 13.10292 122.18949 26911 ft 421 kts 155°
2026-04-20 04:51 13.07613 122.20267 26904 ft 421 kts 155°
2026-04-20 04:51 13.04972 122.21564 26903 ft 421 kts 155°
2026-04-20 04:52 13.02356 122.22848 26847 ft 422 kts 155°
2026-04-20 04:52 12.99663 122.24171 26299 ft 423 kts 155°
2026-04-20 04:52 12.97004 122.25475 25655 ft 423 kts 155°
2026-04-20 04:52 12.94395 122.26754 24988 ft 424 kts 155°
2026-04-20 04:53 12.91751 122.28050 24301 ft 423 kts 154°
2026-04-20 04:53 12.89065 122.29367 23600 ft 423 kts 154°
2026-04-20 04:53 12.86415 122.30667 22927 ft 421 kts 154°
2026-04-20 04:53 12.83784 122.31956 22438 ft 415 kts 154°
2026-04-20 04:54 12.81218 122.33215 21947 ft 409 kts 154°
2026-04-20 04:54 12.78653 122.34475 21425 ft 405 kts 154°
2026-04-20 04:54 12.76101 122.35727 20890 ft 402 kts 154°
2026-04-20 04:54 12.73571 122.36968 20356 ft 398 kts 154°
2026-04-20 04:55 12.71103 122.38178 19837 ft 395 kts 154°
2026-04-20 04:55 12.68622 122.39393 19308 ft 392 kts 154°
2026-04-20 04:55 12.66163 122.40597 18785 ft 389 kts 154°
2026-04-20 04:55 12.63715 122.41797 18260 ft 387 kts 154°
2026-04-20 04:56 12.61313 122.42972 17749 ft 384 kts 154°
2026-04-20 04:56 12.58894 122.44156 17226 ft 382 kts 153°
2026-04-20 04:56 12.56485 122.45334 16709 ft 380 kts 153°
2026-04-20 04:56 12.54121 122.46491 16190 ft 378 kts 153°
2026-04-20 04:57 12.51731 122.47660 15653 ft 377 kts 153°
2026-04-20 04:57 12.49372 122.48814 15124 ft 376 kts 153°
2026-04-20 04:57 12.47011 122.49970 14590 ft 374 kts 153°
2026-04-20 04:57 12.44662 122.51118 14056 ft 372 kts 152°
2026-04-20 04:58 12.42347 122.52251 13535 ft 370 kts 152°
2026-04-20 04:58 12.40033 122.53381 13014 ft 367 kts 152°
2026-04-20 04:58 12.37697 122.54438 12497 ft 365 kts 156°
2026-04-20 04:58 12.35324 122.55289 12000 ft 362 kts 161°
2026-04-20 04:59 12.32870 122.55984 11494 ft 359 kts 163°
2026-04-20 04:59 12.30486 122.56622 11009 ft 355 kts 163°
2026-04-20 04:59 12.28093 122.57258 10597 ft 348 kts 163°
2026-04-20 04:59 12.25804 122.57866 10405 ft 334 kts 163°
2026-04-20 05:00 12.23579 122.58459 10246 ft 320 kts 163°
2026-04-20 05:00 12.21476 122.59019 10092 ft 308 kts 162°
2026-04-20 05:00 12.19439 122.59566 9928 ft 297 kts 162°
2026-04-20 05:00 12.17435 122.60103 9543 ft 296 kts 162°
2026-04-20 05:01 12.15435 122.60639 9158 ft 294 kts 162°
2026-04-20 05:01 12.13452 122.61171 8788 ft 292 kts 162°
2026-04-20 05:01 12.11502 122.61691 8422 ft 290 kts 162°
2026-04-20 05:01 12.09515 122.62138 8057 ft 289 kts 167°
2026-04-20 05:02 12.07524 122.62402 7693 ft 288 kts 172°
2026-04-20 05:02 12.05518 122.62576 7327 ft 286 kts 172°
2026-04-20 05:02 12.03545 122.62739 6967 ft 285 kts 172°
2026-04-20 05:02 12.01571 122.62900 6606 ft 283 kts 173°
2026-04-20 05:03 11.99595 122.63063 6245 ft 282 kts 172°
2026-04-20 05:03 11.97635 122.63226 5890 ft 280 kts 173°
2026-04-20 05:03 11.95692 122.63388 5536 ft 279 kts 173°
2026-04-20 05:03 11.93758 122.63547 5185 ft 278 kts 173°
2026-04-20 05:04 11.91830 122.63708 4838 ft 276 kts 172°
2026-04-20 05:04 11.89920 122.63866 4547 ft 269 kts 172°
2026-04-20 05:04 11.88098 122.64017 4187 ft 259 kts 172°
2026-04-20 05:04 11.86306 122.64166 3849 ft 247 kts 172°
2026-04-20 05:05 11.84629 122.64304 3656 ft 239 kts 172°
2026-04-20 05:05 11.83017 122.64439 3611 ft 227 kts 172°
2026-04-20 05:05 11.81443 122.64571 3567 ft 223 kts 172°
2026-04-20 05:05 11.79933 122.64696 3522 ft 210 kts 172°
2026-04-20 05:06 11.78486 122.64818 3491 ft 207 kts 171°
2026-04-20 05:06 11.77042 122.64942 3540 ft 208 kts 172°
2026-04-20 05:06 11.75575 122.65067 3367 ft 208 kts 172°
2026-04-20 05:06 11.74128 122.65186 3204 ft 208 kts 172°
2026-04-20 05:07 11.72707 122.65454 2993 ft 204 kts 153°
2026-04-20 05:07 11.71524 122.66222 2687 ft 199 kts 139°
2026-04-20 05:07 11.70463 122.67096 2423 ft 197 kts 137°
2026-04-20 05:07 11.69385 122.67995 2155 ft 198 kts 138°
2026-04-20 05:08 11.68333 122.68842 1920 ft 187 kts 139°
2026-04-20 05:08 11.67334 122.69628 1674 ft 177 kts 139°
2026-04-20 05:08 11.66382 122.70367 1431 ft 165 kts 139°
2026-04-20 05:08 11.65495 122.71049 1190 ft 153 kts 139°
2026-04-20 05:09 11.64678 122.71674 977 ft 140 kts 139°
2026-04-20 05:09 11.63903 122.72273 803 ft 138 kts 139°
2026-04-20 05:09 11.63140 122.72860 637 ft 138 kts 139°
2026-04-20 05:09 11.62334 122.73421 494 ft 139 kts 141°
2026-04-20 05:10 11.61551 122.73998 305 ft 138 kts 139°
2026-04-20 05:10 11.60771 122.74567 141 ft 138 kts 140°
2026-04-20 05:10 11.59992 122.75130 36 ft 129 kts 142°
2026-04-20 05:10 11.59416 122.75543 24 ft 58 kts 144°
2026-04-20 05:11 11.59228 122.75691 21 ft 11 kts 137°
2026-04-20 05:11 11.59209 122.75677 21 ft 8 kts 321°
2026-04-20 05:11 11.59274 122.75645 22 ft 12 kts 332°
2026-04-20 05:11 11.59357 122.75587 24 ft 16 kts 325°
2026-04-20 05:12 11.59464 122.75511 24 ft 20 kts 326°
2026-04-20 05:12 11.59595 122.75417 23 ft 25 kts 325°
2026-04-20 05:12 11.59749 122.75307 22 ft 28 kts 324°
2026-04-20 05:12 11.59925 122.75180 21 ft 31 kts 326°
2026-04-20 05:13 11.60071 122.75073 22 ft 16 kts 319°
2026-04-20 05:13 11.60088 122.75007 22 ft 9 kts 266°
2026-04-20 05:13 11.60085 122.74960 23 ft 6 kts 266°
2026-04-20 05:13 11.60083 122.74931 23 ft 0 kts 265°